Simultaneous Nadir Overpasses (SNOs) Predictions

Prediction of SNOs between GOES-15 and METOP-A Satellite Orbit:

Table of predicted SNOs for the next 14.0 days since TLE Epoch: 3/25/2016
Index Date Time (GOES-15) GOES-15 Lat,Lon METOP-A Lat,Lon Distance(km) Time Diff (sec)
1 03/26/2016 06:12:57 -0.02,-134.97 0.77,-131.40 406.66 80
2 03/27/2016 18:31:50 0.02,-135.05 0.20,-135.98 104.66 80
3 03/28/2016 18:13:51 0.02,-135.08 -0.87,-130.97 467.60 80
4 03/30/2016 06:32:53 -0.01,-135.09 -0.10,-135.59 55.56 80
5 04/01/2016 18:31:07 0.01,-135.18 -0.01,-135.16 3.69 80
6 04/04/2016 06:26:49 -0.01,-135.21 0.07,-134.76 50.62 80
7 04/05/2016 18:45:42 0.01,-135.26 0.91,-139.33 463.63 80
8 04/06/2016 18:27:43 0.01,-135.28 -0.17,-134.33 107.26 80
9 04/08/2016 06:46:44
